| time (UTC) | temp F | wind direction | speed knots | gust knots | rain 1hr in | rain 24hr in | rain mn in | humidity % | barometer mb |
| 20260509052307 | 71 | 208 | 1.7 | 2.6 | 0.00 | 0.74 | 0.00 | 84 | 1008.9 |
| 20260509050933 | 71 | 346 | 1.7 | 5.2 | 0.00 | 0.74 | 0.00 | 84 | 1009.8 |
| 20260509045804 | 71 | 339 | 4.3 | 6.1 | 0.00 | 0.74 | 0.74 | 83 | 1008.6 |
| 20260509045306 | 71 | 224 | 0.9 | 2.6 | 0.00 | 0.74 | 0.74 | 83 | 1008.6 |
| 20260509044805 | 71 | 178 | 0.9 | 5.2 | 0.00 | 0.74 | 0.74 | 83 | 1008.1 |
| 20260509044304 | 71 | 175 | 4.3 | 7.0 | 0.00 | 0.74 | 0.74 | 83 | 1008.1 |
| 20260509043804 | 71 | 157 | 4.3 | 5.2 | 0.00 | 0.74 | 0.74 | 82 | 1008.0 |
| 20260509042805 | 71 | 169 | 3.5 | 10.4 | 0.00 | 0.74 | 0.74 | 82 | 1007.7 |
| 20260509042307 | 71 | 180 | 6.1 | 11.3 | 0.00 | 0.74 | 0.74 | 82 | 1007.7 |
| 20260509035804 | 72 | 169 | 6.1 | 12.2 | 0.00 | 0.74 | 0.74 | 81 | 1008.0 |
| 20260509034805 | 72 | 155 | 4.3 | 10.4 | 0.00 | 0.74 | 0.74 | 81 | 1008.0 |
| 20260509032306 | 72 | 150 | 0.9 | 1.7 | 0.00 | 0.74 | 0.74 | 80 | 1008.6 |
| 20260509031304 | 72 | 148 | 1.7 | 5.2 | 0.00 | 0.74 | 0.74 | 80 | 1008.3 |
| 20260509024304 | 72 | 150 | 4.3 | 7.0 | 0.00 | 0.74 | 0.74 | 81 | 1007.9 |
| 20260509021304 | 72 | 159 | 5.2 | 10.4 | 0.00 | 0.74 | 0.74 | 80 | 1006.8 |
| 20260509020804 | 72 | 171 | 7.8 | 12.2 | 0.00 | 0.74 | 0.74 | 79 | 1006.8 |
| 20260509020304 | 72 | 161 | 6.1 | 10.4 | 0.00 | 0.74 | 0.74 | 79 | 1006.9 |
| 20260509015804 | 72 | 155 | 6.1 | 8.7 | 0.00 | 0.74 | 0.74 | 79 | 1006.8 |
| 20260509014804 | 73 | 164 | 5.2 | 7.8 | 0.00 | 0.74 | 0.74 | 78 | 1006.6 |
| 20260509014308 | 73 | 173 | 5.2 | 7.8 | 0.00 | 0.74 | 0.74 | 78 | 1006.6 |
| 20260509013809 | 73 | 168 | 6.1 | 8.7 | 0.00 | 0.74 | 0.74 | 78 | 1006.6 |
| 20260509013308 | 73 | 167 | 5.2 | 7.8 | 0.00 | 0.74 | 0.74 | 77 | 1006.7 |
| 20260509005809 | 73 | 170 | 5.2 | 10.4 | 0.00 | 0.74 | 0.74 | 76 | 1006.6 |
| 20260509005308 | 74 | 161 | 4.3 | 8.7 | 0.00 | 0.74 | 0.74 | 75 | 1006.6 |
| 20260509004808 | 74 | 166 | 5.2 | 10.4 | 0.00 | 0.74 | 0.74 | 75 | 1006.4 |
| 20260509003308 | 74 | 145 | 4.3 | 7.8 | 0.00 | 0.74 | 0.74 | 74 | 1006.2 |
| 20260509002808 | 74 | 164 | 4.3 | 7.8 | 0.00 | 0.74 | 0.74 | 74 | 1006.2 |
| 20260509001808 | 74 | 159 | 7.0 | 10.4 | 0.00 | 0.74 | 0.74 | 73 | 1006.2 |
| 20260509000808 | 74 | 151 | 5.2 | 8.7 | 0.00 | 0.74 | 0.74 | 73 | 1006.4 |
| 20260508233308 | 75 | 170 | 7.8 | 12.2 | 0.00 | 0.74 | 0.74 | 71 | 1006.6 |
| 20260508230308 | 76 | 169 | 6.1 | 10.4 | 0.00 | 0.74 | 0.74 | 70 | 1006.7 |
| 20260508225308 | 77 | 189 | 5.2 | 10.4 | 0.00 | 0.74 | 0.74 | 70 | 1006.8 |
| 20260508224308 | 77 | 184 | 7.8 | 12.2 | 0.00 | 0.74 | 0.74 | 69 | 1006.7 |
| 20260508223808 | 77 | 197 | 5.2 | 10.4 | 0.00 | 0.74 | 0.74 | 69 | 1006.7 |
| 20260508222808 | 78 | 197 | 4.3 | 8.7 | 0.00 | 0.74 | 0.74 | 68 | 1006.7 |
| 20260508221308 | 78 | 163 | 5.2 | 10.4 | 0.00 | 0.74 | 0.74 | 68 | 1006.6 |
| 20260508215808 | 78 | 202 | 7.8 | 11.3 | 0.00 | 0.74 | 0.74 | 67 | 1006.7 |
| 20260508214308 | 77 | 163 | 8.7 | 13.9 | 0.00 | 0.74 | 0.74 | 66 | 1006.6 |
| 20260508212307 | 77 | 151 | 6.1 | 11.3 | 0.00 | 0.74 | 0.74 | 66 | 1006.7 |
| 20260508204808 | 76 | 207 | 7.0 | 12.2 | 0.00 | 0.74 | 0.74 | 67 | 1008.0 |
| 20260508201808 | 77 | 176 | 4.3 | 10.4 | 0.00 | 0.74 | 0.74 | 66 | 1008.6 |
| 20260508201307 | 77 | 167 | 5.2 | 11.3 | 0.00 | 0.74 | 0.74 | 66 | 1008.6 |
| 20260508200807 | 77 | 149 | 5.2 | 11.3 | 0.00 | 0.74 | 0.74 | 65 | 1008.6 |
| 20260508195307 | 78 | 164 | 6.1 | 11.3 | 0.00 | 0.74 | 0.74 | 64 | 1008.5 |
| 20260508194807 | 78 | 156 | 4.3 | 10.4 | 0.00 | 0.74 | 0.74 | 63 | 1008.6 |
| 20260508194307 | 78 | 167 | 6.1 | 11.3 | 0.00 | 0.74 | 0.74 | 64 | 1008.6 |
| 20260508193807 | 79 | 149 | 5.2 | 10.4 | 0.00 | 0.74 | 0.74 | 63 | 1008.6 |
| 20260508192807 | 79 | 198 | 6.1 | 13.0 | 0.00 | 0.74 | 0.74 | 61 | 1008.9 |
| 20260508184807 | 79 | 147 | 5.2 | 10.4 | 0.00 | 0.74 | 0.74 | 61 | 1009.0 |
| 20260508182807 | 78 | 150 | 3.5 | 10.4 | 0.00 | 0.74 | 0.74 | 60 | 1009.4 |
| 20260508180307 | 77 | 162 | 6.1 | 10.4 | 0.00 | 0.74 | 0.74 | 63 | 1009.9 |
| 20260508174806 | 76 | 107 | 3.5 | 10.4 | 0.00 | 0.74 | 0.74 | 62 | 1009.9 |
| 20260508173807 | 75 | 157 | 3.5 | 7.0 | 0.00 | 0.74 | 0.74 | 64 | 1010.0 |
| 20260508172307 | 74 | 170 | 4.3 | 7.8 | 0.00 | 0.74 | 0.74 | 67 | 1010.4 |
| 20260508171807 | 74 | 197 | 2.6 | 7.8 | 0.00 | 0.74 | 0.74 | 66 | 1010.6 |
| 20260508170307 | 73 | 153 | 4.3 | 8.7 | 0.00 | 0.74 | 0.74 | 67 | 1011.0 |
| 20260508163807 | 71 | 189 | 7.0 | 11.3 | 0.00 | 0.74 | 0.74 | 67 | 1011.6 |
| 20260508162807 | 71 | 166 | 6.1 | 10.4 | 0.00 | 0.74 | 0.74 | 69 | 1011.6 |
| 20260508162307 | 70 | 170 | 5.2 | 8.7 | 0.00 | 0.74 | 0.74 | 71 | 1011.9 |
| 20260508161806 | 69 | 167 | 5.2 | 7.8 | 0.00 | 0.74 | 0.74 | 74 | 1011.9 |
| 20260508160807 | 68 | 162 | 5.2 | 10.4 | 0.00 | 0.74 | 0.74 | 74 | 1011.9 |
| 20260508160306 | 67 | 172 | 5.2 | 12.2 | 0.00 | 0.74 | 0.74 | 74 | 1012.4 |
| 20260508155806 | 68 | 177 | 6.1 | 10.4 | 0.00 | 0.74 | 0.74 | 74 | 1012.4 |
| 20260508153306 | 66 | 159 | 4.3 | 8.7 | 0.00 | 0.74 | 0.74 | 81 | 1012.1 |
| 20260508151807 | 65 | 161 | 4.3 | 7.0 | 0.00 | 0.74 | 0.74 | 90 | 1012.1 |
| 20260508151306 | 64 | 183 | 5.2 | 8.7 | 0.00 | 0.74 | 0.74 | 92 | 1012.3 |
| 20260508150806 | 63 | 165 | 4.3 | 7.8 | 0.00 | 0.74 | 0.74 | 93 | 1012.3 |
| 20260508150306 | 62 | 155 | 3.5 | 7.8 | 0.00 | 0.74 | 0.74 | 94 | 1012.4 |
| 20260508145807 | 62 | 160 | 2.6 | 5.2 | 0.00 | 0.74 | 0.74 | 95 | 1012.4 |
| 20260508145307 | 62 | 189 | 4.3 | 7.0 | 0.00 | 0.74 | 0.74 | 95 | 1012.4 |
| 20260508143306 | 62 | 138 | 0.0 | 4.3 | 0.00 | 0.74 | 0.74 | 95 | 1012.5 |
| 20260508141307 | 61 | 136 | 2.6 | 4.3 | 0.00 | 0.74 | 0.74 | 96 | 1012.6 |
| 20260508133806 | 60 | 144 | 1.7 | 2.6 | 0.05 | 0.74 | 0.74 | 96 | 1012.6 |
| 20260508132807 | 60 | 144 | 1.7 | 4.3 | 0.05 | 0.74 | 0.74 | 95 | 1012.7 |
| 20260508132307 | 60 | 142 | 3.5 | 6.1 | 0.05 | 0.74 | 0.74 | 96 | 1012.5 |
| 20260508131807 | 60 | 147 | 2.6 | 5.2 | 0.05 | 0.74 | 0.74 | 96 | 1012.5 |
| 20260508130306 | 60 | 139 | 4.3 | 8.7 | 0.04 | 0.73 | 0.73 | 95 | 1012.5 |
| 20260508124806 | 60 | 119 | 0.0 | 2.6 | 0.01 | 0.70 | 0.70 | 95 | 1013.1 |
| 20260508124306 | 60 | 132 | 1.7 | 4.3 | 0.00 | 0.69 | 0.69 | 96 | 1013.1 |
| 20260508123806 | 59 | 183 | 0.0 | 1.7 | 0.00 | 0.69 | 0.69 | 95 | 1013.1 |
| 20260508123306 | 59 | 183 | 0.9 | 4.3 | 0.00 | 0.69 | 0.69 | 95 | 1013.1 |
| 20260508120805 | 60 | 144 | 0.9 | 2.6 | 0.08 | 0.69 | 0.69 | 95 | 1013.0 |
| 20260508120306 | 60 | 144 | 0.0 | 2.6 | 0.16 | 0.69 | 0.69 | 95 | 1012.8 |
| 20260508115806 | 60 | 144 | 1.7 | 5.2 | 0.19 | 0.69 | 0.69 | 95 | 1012.6 |
| 20260508114806 | 60 | 158 | 4.3 | 5.2 | 0.36 | 0.69 | 0.69 | 95 | 1012.7 |
| 20260508114305 | 59 | 142 | 1.7 | 4.3 | 0.42 | 0.69 | 0.69 | 95 | 1012.6 |
| 20260508113306 | 59 | 138 | 2.6 | 6.1 | 0.43 | 0.69 | 0.69 | 95 | 1012.6 |
| 20260508111306 | 59 | 156 | 7.0 | 10.4 | 0.48 | 0.67 | 0.67 | 94 | 1012.1 |
| 20260508110806 | 60 | 151 | 5.2 | 10.4 | 0.42 | 0.61 | 0.61 | 94 | 1012.3 |
| 20260508110305 | 60 | 144 | 4.3 | 7.8 | 0.34 | 0.53 | 0.53 | 94 | 1013.0 |
| 20260508105805 | 60 | 210 | 0.9 | 2.6 | 0.31 | 0.50 | 0.50 | 93 | 1013.0 |
| 20260508105306 | 60 | 217 | 0.9 | 1.7 | 0.26 | 0.45 | 0.45 | 93 | 1013.2 |
| 20260508104805 | 60 | 215 | 1.7 | 2.6 | 0.14 | 0.33 | 0.33 | 93 | 1012.6 |
| 20260508103806 | 60 | 202 | 0.0 | 2.6 | 0.07 | 0.26 | 0.26 | 93 | 1012.7 |
| 20260508103306 | 60 | 239 | 0.9 | 5.2 | 0.07 | 0.26 | 0.26 | 93 | 1013.3 |
| 20260508102805 | 60 | 273 | 1.7 | 4.3 | 0.07 | 0.26 | 0.26 | 93 | 1012.3 |
| 20260508101806 | 60 | 263 | 0.9 | 2.6 | 0.02 | 0.21 | 0.21 | 93 | 1012.5 |
| 20260508100806 | 60 | 158 | 1.7 | 2.6 | 0.00 | 0.19 | 0.19 | 93 | 1011.6 |
| 20260508095806 | 60 | 157 | 0.9 | 2.6 | 0.01 | 0.19 | 0.19 | 93 | 1011.5 |
| 20260508095307 | 60 | 157 | 2.6 | 4.3 | 0.01 | 0.19 | 0.19 | 92 | 1011.5 |
| 20260508094305 | 60 | 151 | 2.6 | 4.3 | 0.01 | 0.19 | 0.19 | 92 | 1011.7 |
| 20260508093805 | 60 | 157 | 1.7 | 4.3 | 0.01 | 0.19 | 0.19 | 92 | 1011.9 |
| 20260508093305 | 60 | 165 | 1.7 | 2.6 | 0.01 | 0.19 | 0.19 | 92 | 1011.7 |
| 20260508092805 | 60 | 166 | 0.9 | 5.2 | 0.01 | 0.19 | 0.19 | 92 | 1011.9 |
| 20260508091306 | 60 | 182 | 2.6 | 5.2 | 0.02 | 0.19 | 0.19 | 91 | 1011.8 |
| 20260508090805 | 60 | 147 | 5.2 | 7.8 | 0.02 | 0.19 | 0.19 | 91 | 1011.8 |
| 20260508090305 | 60 | 154 | 4.3 | 6.1 | 0.01 | 0.18 | 0.18 | 91 | 1011.9 |
| 20260508085307 | 60 | 199 | 1.7 | 2.6 | 0.08 | 0.18 | 0.18 | 91 | 1012.5 |
| 20260508084306 | 60 | 218 | 1.7 | 2.6 | 0.18 | 0.18 | 0.18 | 90 | 1012.5 |
| 20260508083305 | 60 | 263 | 0.9 | 6.1 | 0.18 | 0.18 | 0.18 | 90 | 1012.5 |
| 20260508082806 | 60 | 157 | 5.2 | 10.4 | 0.18 | 0.18 | 0.18 | 90 | 1012.7 |
| 20260508082306 | 60 | 144 | 5.2 | 10.4 | 0.18 | 0.18 | 0.18 | 89 | 1012.7 |
| 20260508081806 | 60 | 133 | 5.2 | 7.8 | 0.17 | 0.17 | 0.17 | 88 | 1012.7 |
| 20260508080805 | 60 | 150 | 5.2 | 7.8 | 0.17 | 0.17 | 0.17 | 87 | 1013.3 |
| 20260508074305 | 62 | 139 | 0.9 | 1.7 | 0.00 | 0.00 | 0.00 | 80 | 1013.9 |
| 20260508073305 | 62 | 140 | 1.7 | 4.3 | 0.00 | 0.00 | 0.00 | 79 | 1013.3 |
| 20260508072806 | 62 | 139 | 1.7 | 2.6 | 0.00 | 0.00 | 0.00 | 79 | 1013.3 |
| 20260508071306 | 62 | 142 | 1.7 | 6.1 | 0.00 | 0.00 | 0.00 | 80 | 1013.4 |
| 20260508070305 | 62 | 142 | 0.0 | 0.9 | 0.00 | 0.00 | 0.00 | 79 | 1013.3 |
| 20260508065307 | 62 | 142 | 0.9 | 1.7 | 0.00 | 0.00 | 0.00 | 79 | 1013.5 |
| 20260508063805 | 62 | 143 | 0.0 | 0.0 | 0.00 | 0.00 | 0.00 | 78 | 1013.9 |
| 20260508063305 | 62 | 143 | 0.0 | 0.9 | 0.00 | 0.00 | 0.00 | 78 | 1014.1 |
| 20260508062805 | 62 | 142 | 0.0 | 1.7 | 0.00 | 0.00 | 0.00 | 78 | 1014.1 |
| 20260508062306 | 62 | 142 | 0.9 | 2.6 | 0.00 | 0.00 | 0.00 | 77 | 1013.9 |
| 20260508060805 | 63 | 143 | 0.9 | 2.6 | 0.00 | 0.00 | 0.00 | 76 | 1013.8 |